Regional Weather Roundup
Issued by NWS Jackson, KY

Home | Current Version | Previous Version | Graphics & Text | Print | Product List | Glossary On
Versions: 1 2 3 4 5 6 7 8 9 10 11 12 13 14 15 16 17 18 19 20 21 22 23 24 25 26 27 28 29 30 31 32 33 34 35 36 37 38 39 40 41 42 43 44 45 46 47 48 49 50
890
ASUS43 KJKL 120110
RWRJKL

EAST KENTUCKY HOURLY WEATHER ROUNDUP
NATIONAL WEATHER SERVICE JACKSON KY
800 PM EST THU FEB 11 2016

NOTE: "FAIR" INDICATES FEW OR NO CLOUDS BELOW 12,000 FEET WITH
NO SIGNIFICANT WEATHER AND/OR OBSTRUCTIONS TO VISIBILITY.

* THESE REPORTS ARE NOT UNDER NWS QUALITY CONTROL AND MAY NOT
  REPORT WEATHER SUCH AS PRECIPITATION AND FOG.

KYZ079-080-083-085-087-088-110-112-115-119-120-120200
...EASTERN KENTUCKY...

CITY           SKY/WX    TMP DP  RH WIND       PRES   REMARKS
JACKSON        CLEAR     23   8  52 VRB3      30.25R
LONDON         CLEAR     27   9  46 N3        30.26R
SOMERSET*      PTCLDY    28  14  54 NE7       30.29S WCI  21
MONTICELLO*    PTCLDY    24  20  84 N14       30.28S WCI  12
WILLIAMSBURG*  CLEAR     28  12  50 N5        30.26S WCI  23
MIDDLESBORO*   CLEAR     27  20  74 NW5       30.25S WCI  22
HARLAN APT*      N/A     28  16  59 CALM      30.23S
HAZARD APT*    CLEAR     23   3  42 CALM      30.26R
BIG SANDY*     CLEAR     24   8  51 CALM      30.27R
MOREHEAD APT*  CLEAR     23   9  54 CALM      30.31S
$$

KYZ035-036-041-042-044-050-067-078-099-120200
...CENTRAL KENTUCKY...

CITY           SKY/WX    TMP DP  RH WIND       PRES   REMARKS
MT STERLING*   CLOUDY    23  12  63 CALM      30.30S
DANVILLE*      PTCLDY    27  16  63 E3        30.29S
RICHMOND*      PTCLDY    25  12  58 E3        30.28S
LEXINGTON      PTCLDY    23  14  68 CALM      30.28S
FRANKFORT      PTCLDY    25  11  55 N3        30.29S
$$

KYZ091>093-OHZ055-061-077-WVZ005-015-034-035-042-120200
...SOUTHERN OHIO/WEST VIRGINIA...

CITY           SKY/WX    TMP DP  RH WIND       PRES   REMARKS
COVINGTON      PTCLDY    20   7  57 N7        30.30R WCI  11
COLUMBUS       CLOUDY    17   6  62 SW3       30.30R
DAYTON         CLOUDY    18   8  65 CALM      30.30R
WILMINGTON     CLOUDY    15   5  64 CALM      30.29R
HUNTINGTON       N/A     22   4  46 N3        30.29F
CHARLESTON       N/A     20   3  48 CALM      30.29S
PINEVILLE*       N/A     17   9  71 MISG      30.27R
BECKLEY          N/A     15   3  59 N3        30.16S
$$

VAZ002-007-008-TNZ017-027-036-066-071-120200
...SOUTHWEST VIRGINIA/EAST TENNESSEE...

CITY           SKY/WX    TMP DP  RH WIND       PRES   REMARKS
BRISTOL        CLEAR     29  16  58 W3        30.22R
KNOXVILLE      PTCLDY    35  19  52 NE3       30.23R
OAK RIDGE      CLEAR     35  20  54 E3        30.25R
CROSSVILLE     CLEAR     32  19  58 N5        30.20R WCI  27
NASHVILLE      PTCLDY    34  21  59 NE7       30.27S WCI  28
$$

...KEY TO REMARKS...
VSB - VISIBILITY IN MILES
WCI - WIND CHILL INDEX
HX  - HEAT INDEX

$$




USA.gov is the U.S. government's official web portal to all federal, state and local government web resources and services.